Regional Weather Roundup
Issued by NWS Mt. Holly, NJ

Home | Current Version | Previous Version | Text Only | Print | Product List | Glossary On
Versions: 1 2 3 4 5 6 7 8 9 10 11 12 13 14 15 16 17 18 19 20 21 22 23 24 25 26 27 28 29 30 31 32 33 34 35 36 37 38 39 40 41 42 43 44 45 46 47 48 49 50
000
ASUS41 KPHI 230212
RWRPHI

REGIONAL WEATHER ROUNDUP
NATIONAL WEATHER SERVICE MOUNT HOLLY NJ
1000 PM EDT MON MAY 22 2017

NOTE:  "FAIR" INDICATES FEW OR NO CLOUDS BELOW 12,000 FEET WITH NO
SIGNIFICANT WEATHER AND/OR OBSTRUCTIONS TO VISIBILITY.

 * = STATION DOES NOT REPORT PRECIPITATION (E.G. RAIN, SNOW, ETC.)
        OR FOG.

NJZ015>026-230300-
SOUTHERN NEW JERSEY

CITY           SKY/WX    TMP DP  RH WIND       PRES   REMARKS
POMONA         FOG       63  62  97 CALM      29.97S VSB 1/4
WILDWOOD*      FOG       64  63  96 NW3       29.98R VSB 1/2
MILLVILLE      CLOUDY    65  65 100 W3        29.98R FOG
WRIGHTSTOWN    CLOUDY    63  63 100 NW5       29.95S
MOUNT HOLLY    CLOUDY    63  62  97 CALM      29.97R
TRENTON        CLOUDY    61  61 100 N3        29.97S FOG

$$
NJZ001>014-230300-
NORTHERN NEW JERSEY

CITY           SKY/WX    TMP DP  RH WIND       PRES   REMARKS
SUSSEX         CLOUDY    59  58  96 CALM      29.99R
ANDOVER*         N/A     58  57  97 CALM      29.98S
MORRISTOWN     CLOUDY    59  59 100 CALM      29.98R FOG
NEWARK         CLOUDY    60  59  96 W5        29.97R
TETERBORO      CLOUDY    61  60  97 CALM      29.96R
CALDWELL       CLOUDY    62  59  90 CALM      29.98R FOG
SOMERVILLE     CLOUDY    59  58  96 CALM      29.96S FOG
ALLAIRE*       CLOUDY    63  63 100 W6        29.98S FOG
TOMS RIVER*    CLOUDY    63  63 100 CALM      29.97S

$$
PAZ043-044-047-054-055-060>062-066>071-230300-
EASTERN PENNSYLVANIA

CITY           SKY/WX    TMP DP  RH WIND       PRES   REMARKS
PHILADELPHIA   CLOUDY    66  61  84 VRB6      29.98S
NORTH PHILA    CLOUDY    65  62  90 CALM      29.99R FOG
BLUE BELL*     CLOUDY    61  61 100 CALM      29.99S
DOYLESTOWN     CLOUDY    61  61 100 CALM      29.98R
QUAKERTOWN*    CLOUDY    61  61 100 CALM      30.00R
PERKASIE*      CLOUDY    59  59 100 W3        30.00R
POTTSTOWN      CLOUDY    61  60  97 CALM      30.00R FOG
LANCASTER      CLOUDY    64  62  93 CALM      29.99R
COATESVILLE    CLOUDY    63  61  94 CALM      30.00S
READING        CLOUDY    62  60  93 NW5       29.99R
ALLENTOWN      CLOUDY    60  57  89 NW3       29.99R
MOUNT POCONO   CLOUDY    52  52 100 W6        29.99R
HAZLETON       CLOUDY    55  54  94 MISG      30.02F FOG
LEHIGHTON      CLOUDY    59  55  88 CALM      30.00R
WILKES BARRE   CLOUDY    60  56  86 SW3       29.98R

$$
DEZALL-MDZ008-012-015-019-020-230300-
DELAWARE AND EASTERN MARYLAND

CITY           SKY/WX    TMP DP  RH WIND       PRES   REMARKS
WILMINGTON     CLOUDY    65  62  90 NW3       29.98S
DOVER          CLOUDY    63 N/A N/A CALM      29.96S
GEORGETOWN     FOG       67  65  93 NE5       29.97R VSB 1/4
EASTON         CLOUDY    66  64  94 N3        30.00S FOG
ABERDEEN       LGT RAIN  61  61 100 CALM      29.99R
PATUXENT       MOCLDY    64  64 100 N5        29.96F
OCEAN CITY     FOG       64  63  96 CALM      29.96S VSB 3/4
WALLOPS ISLAND MOCLDY    66  66 100 N5        29.95R FOG
CAMBRIDGE      PTCLDY    66  64  94 CALM      29.97S
SALISBURY      FOG       67  67 100 NW5       29.96R VSB 1/2

$$
PAZ001-021-NYZ056-072-MDZ011-DCZ001-230300-
OTHER NEARBY LOCATIONS

CITY           SKY/WX    TMP DP  RH WIND       PRES   REMARKS
HARRISBURG     CLOUDY    62  60  93 N3        29.98S
WILLIAMSPORT   PTCLDY    60  57  89 N3        29.97R
BINGHAMTON     CLOUDY    56  50  80 N12       29.99S
NEW YORK CITY  CLOUDY    60  60 100 W3        30.00R FOG
BALTIMORE      CLOUDY    62  62 100 CALM      29.97F
WASHINGTON DC  CLOUDY    68  64  87 CALM      29.97S

$$



USA.gov is the U.S. government's official web portal to all federal, state and local government web resources and services.